Location: Lafig�re
(44.4503°N, 4.0357°E)
Time: 06:04:20
(UTC+00:00)

Transit 2A Rocket - Pass Details

Date: 22 June 2021
Orbit: 590 x 913 km, 66.7° (Epoch: 26 July)

Event Time Altitude Azimuth Distance (km) Brightness Sun altitude
Exits shadow 00:14:08 39° 258° (WSW) 898 5.2 -21.8°
Maximum altitude 00:15:18 52° 306° (NW) 752 5.1 -21.8°
Drops below altitude 10° 00:19:40 10° 24° (NNE) 1,999 8.2 -21.7°
Sets 00:22:04 0° 29° (NNE) 2,948 9.3 -21.6°
